This is the latest recevied weather packets stored in our database for station/object KB3UMW-13. If no packets are shown the sender has not sent any weather packets the latest 10 day(s).
| Time | Temp. | Humidity | Pressure | Rain* | Wind** | Luminosity | Snow |
|---|---|---|---|---|---|---|---|
| 1778031320 | 11.11° C | 86% | 1011.3 hPa | 0 mm | - | 0 W/m² | - |
| 1778031016 | 11.11° C | 86% | 1011.2 hPa | 0 mm | - | 0 W/m² | - |
| 1778030712 | 11.11° C | 84% | 1011.2 hPa | 0 mm | - | 0 W/m² | - |
| 1778030409 | 11.11° C | 84% | 1011.4 hPa | 0 mm | - | 0 W/m² | - |
| 1778030107 | 11.11° C | 83% | 1011.5 hPa | 0 mm | - | 0 W/m² | - |
| 1778029803 | 11.11° C | 82% | 1011.2 hPa | 0 mm | - | 0 W/m² | - |
| 1778029502 | 11.11° C | 82% | 1011.4 hPa | 0 mm | - | 0 W/m² | - |
| 1778029197 | 11.11° C | 82% | 1011.2 hPa | 0 mm | - | 0 W/m² | - |
| 1778028896 | 11.11° C | 82% | 1011.3 hPa | 0 mm | - | 0 W/m² | - |
| 1778028590 | 11.67° C | 81% | 1011 hPa | 0 mm | - | 0 W/m² | - |
| 1778028289 | 11.67° C | 78% | 1011.3 hPa | 0 mm | - | 0 W/m² | - |
| 1778027985 | 11.67° C | 79% | 1011.2 hPa | 0 mm | - | 0 W/m² | - |
| 1778027681 | 12.22° C | 77% | 1011.3 hPa | 0 mm | - | 0 W/m² | - |
| 1778027378 | 12.22° C | 77% | 1011.5 hPa | 0 mm | - | 0 W/m² | - |
| 1778027074 | 12.22° C | 77% | 1011.4 hPa | 0 mm | - | 1 W/m² | - |
| 1778026769 | 12.78° C | 75% | 1011.4 hPa | 0 mm | - | 1 W/m² | - |
| 1778026467 | 13.33° C | 74% | 1011.1 hPa | 0 mm | - | 2 W/m² | - |
| 1778026164 | 13.89° C | 74% | 1011.2 hPa | 0 mm | - | 3 W/m² | - |
| 1778025861 | 14.44° C | 70% | 1011 hPa | 0 mm | - | 5 W/m² | - |
| 1778025558 | 15° C | 69% | 1011 hPa | 0 mm | - | 6 W/m² | - |
| 1778025256 | 15.56° C | 65% | 1011 hPa | 0 mm | - | 8 W/m² | - |
| 1778024953 | 16.67° C | 63% | 1011.1 hPa | 0 mm | - | 10 W/m² | - |
| 1778024650 | 17.22° C | 60% | 1010.8 hPa | 0 mm | - | 13 W/m² | - |
| 1778024347 | 17.22° C | 58% | 1010.7 hPa | 0 mm | - | 18 W/m² | - |
| 1778024045 | 17.22° C | 61% | 1010.8 hPa | 0 mm | - | 30 W/m² | - |
* Rain latest hour (hover to see other rain measurements)
** Current wind speed in m/s (hover to see current wind gust speed)